SXS1YB LTAU-LTBJ

Flight info

Callsign SXS1YB
Flight time 1h 9m
Altitude 36000
Route KISLA UA17 BELSU UL605 BADOX UT243 HAY UR32 HALIL UT54 KULAR
Aircraft B38M/M-SDE1FGHILORVWXY/HB1

Departure

Time 2026-04-27 17:29
Airport Kayseri Erkilet International Airport (LTAU)

Arrival

Time 2026-04-27 18:39
Airport Adnan Menderes International Airport (LTBJ)
Time Latitude Longitude Altitude Speed Heading
2026-04-27 17:27 38.76637 35.48142 3470 ft 8 kts 257°
2026-04-27 17:28 38.76663 35.48106 3471 ft 5 kts 356°
2026-04-27 17:28 38.76681 35.48104 3472 ft 2 kts 355°
2026-04-27 17:28 38.76772 35.48146 3473 ft 16 kts 75°
2026-04-27 17:29 38.76851 35.48556 3469 ft 88 kts 77°
2026-04-27 17:29 38.77056 35.49628 3468 ft 157 kts 76°
2026-04-27 17:29 38.77327 35.51113 4001 ft 174 kts 75°
2026-04-27 17:29 38.77612 35.52605 4963 ft 173 kts 73°
2026-04-27 17:30 38.77902 35.54085 5770 ft 171 kts 73°
2026-04-27 17:30 38.78496 35.57112 7073 ft 185 kts 73°
2026-04-27 17:30 38.78831 35.58819 7462 ft 210 kts 74°
2026-04-27 17:31 38.79253 35.60684 7903 ft 232 kts 63°
2026-04-27 17:31 38.80340 35.62276 8410 ft 249 kts 30°
2026-04-27 17:31 38.82013 35.62824 9304 ft 246 kts 355°
2026-04-27 17:31 38.83662 35.62387 10408 ft 243 kts 346°
2026-04-27 17:32 38.85328 35.61888 11181 ft 249 kts 347°
2026-04-27 17:32 38.88524 35.60278 12955 ft 252 kts 317°
2026-04-27 17:32 38.89566 35.58428 13665 ft 266 kts 295°
2026-04-27 17:33 38.90133 35.56072 14100 ft 286 kts 286°
2026-04-27 17:33 38.90632 35.53490 14475 ft 307 kts 285°
2026-04-27 17:33 38.91141 35.50738 14898 ft 325 kts 284°
2026-04-27 17:33 38.91654 35.47895 15444 ft 337 kts 284°
2026-04-27 17:34 38.92175 35.44946 16248 ft 339 kts 284°
2026-04-27 17:34 38.92695 35.41968 17019 ft 344 kts 284°
2026-04-27 17:34 38.93219 35.38953 17769 ft 348 kts 284°
2026-04-27 17:34 38.93749 35.35898 18479 ft 352 kts 284°
2026-04-27 17:35 38.94282 35.32813 19092 ft 356 kts 284°
2026-04-27 17:35 38.94818 35.29704 19717 ft 359 kts 283°
2026-04-27 17:35 38.95361 35.26555 20328 ft 362 kts 283°
2026-04-27 17:35 38.95907 35.23377 20938 ft 366 kts 283°
2026-04-27 17:36 38.96459 35.20163 21535 ft 369 kts 283°
2026-04-27 17:36 38.97008 35.16959 22117 ft 373 kts 283°
2026-04-27 17:36 38.97575 35.13650 22725 ft 377 kts 283°
2026-04-27 17:36 38.97948 35.11461 23123 ft 379 kts 283°
2026-04-27 17:37 38.98701 35.07048 23846 ft 384 kts 283°
2026-04-27 17:37 38.99273 35.03686 24357 ft 387 kts 283°
2026-04-27 17:37 38.99849 35.00292 24881 ft 389 kts 283°
2026-04-27 17:37 39.00427 34.96879 25397 ft 391 kts 283°
2026-04-27 17:38 39.00811 34.94611 25733 ft 393 kts 282°
2026-04-27 17:38 39.01395 34.91158 26242 ft 395 kts 282°
2026-04-27 17:38 39.01980 34.87688 26743 ft 398 kts 282°
2026-04-27 17:38 39.02568 34.84196 27241 ft 400 kts 282°
2026-04-27 17:39 39.03157 34.80684 27723 ft 402 kts 282°
2026-04-27 17:39 39.03750 34.77150 28173 ft 405 kts 282°
2026-04-27 17:39 39.04345 34.73594 28637 ft 408 kts 282°
2026-04-27 17:39 39.04943 34.70012 29097 ft 411 kts 282°
2026-04-27 17:40 39.05537 34.66453 29509 ft 413 kts 282°
2026-04-27 17:40 39.06140 34.62828 29941 ft 416 kts 282°
2026-04-27 17:40 39.06747 34.59173 30322 ft 418 kts 282°
2026-04-27 17:40 39.07354 34.55505 30698 ft 420 kts 282°
2026-04-27 17:41 39.07963 34.51820 31064 ft 422 kts 282°
2026-04-27 17:41 39.08575 34.48115 31419 ft 424 kts 282°
2026-04-27 17:41 39.09188 34.44382 31778 ft 426 kts 281°
2026-04-27 17:41 39.09490 34.40578 32121 ft 428 kts 271°
2026-04-27 17:42 39.09618 34.36741 32439 ft 430 kts 274°
2026-04-27 17:42 39.09812 34.32879 32765 ft 433 kts 274°
2026-04-27 17:42 39.10023 34.29008 33180 ft 433 kts 274°
2026-04-27 17:42 39.10241 34.25148 33659 ft 431 kts 274°
2026-04-27 17:43 39.10461 34.21308 34112 ft 430 kts 274°
2026-04-27 17:43 39.10678 34.17513 34492 ft 430 kts 274°
2026-04-27 17:43 39.10896 34.13681 34879 ft 428 kts 274°
2026-04-27 17:43 39.11113 34.09856 35267 ft 427 kts 274°
2026-04-27 17:44 39.11328 34.06032 35644 ft 426 kts 274°
2026-04-27 17:44 39.11540 34.02233 35976 ft 426 kts 274°
2026-04-27 17:44 39.11753 33.98420 36068 ft 426 kts 274°
2026-04-27 17:45 39.12170 33.90855 36055 ft 423 kts 274°
2026-04-27 17:45 39.12582 33.83297 36053 ft 423 kts 274°
2026-04-27 17:46 39.12988 33.75773 36051 ft 423 kts 274°
2026-04-27 17:46 39.13390 33.68208 36046 ft 423 kts 274°
2026-04-27 17:47 39.13788 33.60646 36047 ft 423 kts 274°
2026-04-27 17:47 39.14181 33.53080 36045 ft 423 kts 274°
2026-04-27 17:48 39.14568 33.45514 36038 ft 423 kts 274°
2026-04-27 17:48 39.14948 33.38008 36042 ft 423 kts 274°
2026-04-27 17:49 39.15327 33.30437 36039 ft 423 kts 274°
2026-04-27 17:49 39.15699 33.22870 36042 ft 423 kts 274°
2026-04-27 17:50 39.16068 33.15306 36047 ft 423 kts 274°
2026-04-27 17:50 39.16610 33.03966 36053 ft 422 kts 274°
2026-04-27 17:51 39.16963 32.96453 36053 ft 422 kts 274°
2026-04-27 17:51 39.17314 32.88890 36058 ft 422 kts 274°
2026-04-27 17:52 39.17660 32.81335 36058 ft 422 kts 274°
2026-04-27 17:52 39.17998 32.73833 36059 ft 421 kts 274°
2026-04-27 17:53 39.18333 32.66292 36065 ft 421 kts 274°
2026-04-27 17:53 39.18664 32.58737 36061 ft 421 kts 274°
2026-04-27 17:54 39.18989 32.51194 36063 ft 421 kts 273°
2026-04-27 17:54 39.19310 32.43651 36063 ft 421 kts 273°
2026-04-27 17:55 39.19625 32.36121 36068 ft 421 kts 273°
2026-04-27 17:55 39.19935 32.28590 36063 ft 420 kts 273°
2026-04-27 17:56 39.20239 32.21097 36064 ft 420 kts 273°
2026-04-27 17:56 39.20539 32.13568 36062 ft 420 kts 273°
2026-04-27 17:57 39.20835 32.06048 36061 ft 420 kts 273°
2026-04-27 17:57 39.21125 31.98523 36064 ft 419 kts 273°
2026-04-27 17:58 39.21410 31.91012 36065 ft 419 kts 273°
2026-04-27 17:58 39.21659 31.83497 36061 ft 419 kts 268°
2026-04-27 17:59 39.21156 31.79817 36064 ft 418 kts 251°
2026-04-27 17:59 39.20120 31.76354 36070 ft 421 kts 250°
2026-04-27 17:59 39.17968 31.69329 36069 ft 421 kts 249°
2026-04-27 18:00 39.15742 31.62338 36073 ft 421 kts 249°
2026-04-27 18:00 39.13498 31.55368 36073 ft 421 kts 249°
2026-04-27 18:01 39.11245 31.48398 36078 ft 421 kts 249°
2026-04-27 18:01 39.08990 31.41436 36084 ft 421 kts 249°
2026-04-27 18:02 39.06732 31.34483 36083 ft 429 kts 249°
2026-04-27 18:02 39.04397 31.27312 36083 ft 437 kts 249°
2026-04-27 18:03 39.02044 31.20103 36085 ft 437 kts 248°
2026-04-27 18:03 38.99689 31.12907 36087 ft 437 kts 248°
2026-04-27 18:04 38.97330 31.05717 36090 ft 437 kts 248°
2026-04-27 18:04 38.94966 30.98530 36090 ft 436 kts 248°
2026-04-27 18:05 38.92600 30.91356 36082 ft 436 kts 248°
2026-04-27 18:05 38.90241 30.84218 36082 ft 436 kts 248°
2026-04-27 18:06 38.87863 30.77043 36087 ft 436 kts 248°
2026-04-27 18:06 38.85481 30.69874 36083 ft 436 kts 248°
2026-04-27 18:07 38.83102 30.62732 36085 ft 435 kts 248°
2026-04-27 18:07 38.81577 30.59379 36061 ft 436 kts 230°
2026-04-27 18:07 38.79283 30.56970 36081 ft 431 kts 210°
2026-04-27 18:08 38.76469 30.55678 36086 ft 432 kts 196°
2026-04-27 18:08 38.73526 30.54795 36080 ft 434 kts 195°
2026-04-27 18:08 38.67634 30.53031 36076 ft 434 kts 199°
2026-04-27 18:09 38.64862 30.51595 36089 ft 428 kts 212°
2026-04-27 18:09 38.62454 30.49367 36063 ft 428 kts 227°
2026-04-27 18:09 38.60596 30.46403 36065 ft 429 kts 242°
2026-04-27 18:09 38.59368 30.42926 36069 ft 431 kts 255°
2026-04-27 18:10 38.58180 30.35401 36079 ft 433 kts 260°
2026-04-27 18:10 38.57031 30.27880 36073 ft 433 kts 260°
2026-04-27 18:11 38.55867 30.20308 36077 ft 433 kts 260°
2026-04-27 18:11 38.54703 30.12762 36071 ft 432 kts 260°
2026-04-27 18:12 38.53532 30.05215 35832 ft 432 kts 260°
2026-04-27 18:12 38.52952 30.01495 35597 ft 432 kts 260°
2026-04-27 18:12 38.52362 29.97718 35362 ft 433 kts 259°
2026-04-27 18:13 38.51770 29.93943 35114 ft 434 kts 260°
2026-04-27 18:13 38.51174 29.90153 34892 ft 435 kts 259°
2026-04-27 18:13 38.50576 29.86357 34648 ft 436 kts 259°
2026-04-27 18:13 38.49984 29.82606 34421 ft 437 kts 259°
2026-04-27 18:14 38.49381 29.78798 34181 ft 438 kts 259°
2026-04-27 18:14 38.48777 29.74987 33939 ft 438 kts 259°
2026-04-27 18:14 38.48170 29.71167 33668 ft 439 kts 259°
2026-04-27 18:14 38.47560 29.67337 33407 ft 440 kts 259°
2026-04-27 18:15 38.46949 29.63507 33147 ft 441 kts 259°
2026-04-27 18:15 38.46335 29.59665 32883 ft 442 kts 259°
2026-04-27 18:15 38.45719 29.55817 32609 ft 442 kts 259°
2026-04-27 18:15 38.45100 29.51973 32012 ft 442 kts 259°
2026-04-27 18:16 38.44479 29.48133 31362 ft 443 kts 259°
2026-04-27 18:16 38.43852 29.44261 30836 ft 446 kts 259°
2026-04-27 18:16 38.43222 29.40386 30357 ft 448 kts 259°
2026-04-27 18:16 38.42596 29.36537 29825 ft 449 kts 259°
2026-04-27 18:17 38.41960 29.32634 29269 ft 451 kts 259°
2026-04-27 18:17 38.41319 29.28708 28776 ft 453 kts 259°
2026-04-27 18:17 38.40675 29.24772 28297 ft 454 kts 259°
2026-04-27 18:17 38.40028 29.20831 27800 ft 455 kts 259°
2026-04-27 18:18 38.39378 29.16869 27303 ft 454 kts 259°
2026-04-27 18:18 38.38748 29.12976 26846 ft 446 kts 259°
2026-04-27 18:18 38.38120 29.09118 26363 ft 443 kts 259°
2026-04-27 18:18 38.37491 29.05276 25898 ft 441 kts 259°
2026-04-27 18:19 38.36865 29.01462 25438 ft 438 kts 259°
2026-04-27 18:19 38.36248 28.97714 24984 ft 436 kts 259°
2026-04-27 18:19 38.35627 28.93948 24530 ft 433 kts 259°
2026-04-27 18:19 38.35007 28.90200 24078 ft 431 kts 259°
2026-04-27 18:20 38.34390 28.86473 23624 ft 428 kts 259°
2026-04-27 18:20 38.33774 28.82767 23104 ft 426 kts 259°
2026-04-27 18:20 38.33160 28.79079 22642 ft 423 kts 259°
2026-04-27 18:20 38.32550 28.75423 22202 ft 421 kts 259°
2026-04-27 18:21 38.31943 28.71786 21765 ft 418 kts 259°
2026-04-27 18:21 38.31330 28.68146 21315 ft 422 kts 259°
2026-04-27 18:21 38.30710 28.64481 20759 ft 424 kts 259°
2026-04-27 18:21 38.30093 28.60823 20221 ft 422 kts 259°
2026-04-27 18:22 38.29486 28.57227 19696 ft 419 kts 259°
2026-04-27 18:22 38.28875 28.53609 19174 ft 417 kts 259°
2026-04-27 18:22 38.28266 28.50002 18655 ft 414 kts 259°
2026-04-27 18:22 38.27660 28.46426 18123 ft 411 kts 259°
2026-04-27 18:23 38.27058 28.42881 17546 ft 408 kts 259°
2026-04-27 18:23 38.26459 28.39356 16975 ft 405 kts 259°
2026-04-27 18:23 38.25872 28.35908 16421 ft 402 kts 259°
2026-04-27 18:23 38.25273 28.32399 15867 ft 399 kts 259°
2026-04-27 18:24 38.24692 28.29002 15332 ft 396 kts 259°
2026-04-27 18:24 38.24107 28.25586 14789 ft 394 kts 259°
2026-04-27 18:24 38.23524 28.22191 14280 ft 391 kts 259°
2026-04-27 18:24 38.22946 28.18831 13756 ft 388 kts 259°
2026-04-27 18:25 38.22369 28.15482 13182 ft 386 kts 258°
2026-04-27 18:25 38.21795 28.12163 12622 ft 382 kts 258°
2026-04-27 18:25 38.21225 28.08868 12071 ft 379 kts 258°
2026-04-27 18:25 38.20660 28.05610 11528 ft 376 kts 258°
2026-04-27 18:26 38.20288 28.03462 11170 ft 374 kts 258°
2026-04-27 18:26 38.19729 28.00250 10645 ft 371 kts 258°
2026-04-27 18:26 38.19173 27.97057 10125 ft 368 kts 257°
2026-04-27 18:26 38.18620 27.93889 9567 ft 366 kts 257°
2026-04-27 18:27 38.18069 27.90731 9012 ft 364 kts 257°
2026-04-27 18:27 38.17520 27.87594 8453 ft 362 kts 257°
2026-04-27 18:27 38.16974 27.84477 7906 ft 360 kts 257°
2026-04-27 18:27 38.16431 27.81385 7360 ft 358 kts 257°
2026-04-27 18:28 38.15896 27.78342 6836 ft 357 kts 257°
2026-04-27 18:28 38.15355 27.75273 6299 ft 355 kts 257°
2026-04-27 18:28 38.14816 27.72219 5830 ft 351 kts 257°
2026-04-27 18:28 38.14291 27.69239 5609 ft 340 kts 257°
2026-04-27 18:29 38.13782 27.66353 5382 ft 329 kts 257°
2026-04-27 18:29 38.13288 27.63551 5174 ft 320 kts 257°
2026-04-27 18:29 38.12806 27.60836 5058 ft 308 kts 257°
2026-04-27 18:29 38.12348 27.58252 5058 ft 293 kts 257°
2026-04-27 18:30 38.11911 27.55793 5055 ft 278 kts 257°
2026-04-27 18:30 38.11495 27.53456 5052 ft 264 kts 257°
2026-04-27 18:30 38.11099 27.51237 5045 ft 250 kts 257°
2026-04-27 18:30 38.10720 27.49119 5038 ft 244 kts 257°
2026-04-27 18:31 38.10343 27.47023 5011 ft 243 kts 257°
2026-04-27 18:31 38.09966 27.44924 5006 ft 243 kts 257°
2026-04-27 18:31 38.09593 27.42854 4998 ft 243 kts 257°
2026-04-27 18:31 38.09215 27.40757 5000 ft 244 kts 257°
2026-04-27 18:32 38.08836 27.38659 5005 ft 244 kts 257°
2026-04-27 18:32 38.08458 27.36563 4998 ft 244 kts 257°
2026-04-27 18:32 38.08078 27.34464 4999 ft 244 kts 257°
2026-04-27 18:32 38.07697 27.32380 4962 ft 240 kts 257°
2026-04-27 18:33 38.07317 27.30341 4772 ft 236 kts 257°
2026-04-27 18:33 38.06940 27.28318 4493 ft 235 kts 258°
2026-04-27 18:33 38.06570 27.26319 4272 ft 231 kts 259°
2026-04-27 18:33 38.06562 27.24334 3974 ft 224 kts 290°
2026-04-27 18:34 38.07366 27.22723 3740 ft 213 kts 323°
2026-04-27 18:34 38.08632 27.21879 3561 ft 201 kts 346°
2026-04-27 18:34 38.09955 27.21406 3418 ft 194 kts 347°
2026-04-27 18:34 38.11227 27.20977 3252 ft 185 kts 347°
2026-04-27 18:35 38.12460 27.20576 3073 ft 180 kts 348°
2026-04-27 18:35 38.13642 27.20202 2885 ft 174 kts 348°
2026-04-27 18:35 38.14792 27.19845 2711 ft 166 kts 348°
2026-04-27 18:35 38.15889 27.19507 2550 ft 160 kts 348°
2026-04-27 18:36 38.16948 27.19183 2409 ft 152 kts 348°
2026-04-27 18:36 38.17957 27.18877 2290 ft 148 kts 348°
2026-04-27 18:36 38.18957 27.18574 2073 ft 146 kts 348°
2026-04-27 18:36 38.19922 27.18285 1960 ft 141 kts 348°
2026-04-27 18:37 38.20868 27.17996 1764 ft 139 kts 349°
2026-04-27 18:37 38.21804 27.17716 1562 ft 138 kts 348°
2026-04-27 18:37 38.22746 27.17432 1386 ft 140 kts 347°
2026-04-27 18:37 38.23684 27.17150 1246 ft 139 kts 347°
2026-04-27 18:38 38.24630 27.16867 1041 ft 140 kts 348°
2026-04-27 18:38 38.25573 27.16582 920 ft 136 kts 348°
2026-04-27 18:38 38.26491 27.16309 766 ft 136 kts 347°
2026-04-27 18:38 38.27376 27.16046 569 ft 134 kts 345°
2026-04-27 18:39 38.28256 27.15775 421 ft 122 kts 347°
2026-04-27 18:39 38.28856 27.15596 417 ft 56 kts 347°
2026-04-27 18:39 38.29040 27.15539 421 ft 9 kts 338°
2026-04-27 18:39 38.29058 27.15506 418 ft 1 kts 262°
2026-04-27 18:40 38.29053 27.15475 421 ft 8 kts 260°
2026-04-27 18:40 38.29027 27.15331 409 ft 20 kts 251°
2026-04-27 18:40 38.29016 27.15281 410 ft 11 kts 254°
2026-04-27 18:40 38.29034 27.15226 409 ft 6 kts 343°
2026-04-27 18:41 38.29099 27.15203 412 ft 8 kts 332°
2026-04-27 18:41 38.29109 27.15160 414 ft 3 kts 258°
2026-04-27 18:41 38.29107 27.15147 414 ft 3 kts 257°
2026-04-27 18:41 38.29104 27.15127 414 ft 1 kts 256°
2026-04-27 18:42 38.29102 27.15118 409 ft 0 kts 255°